User: anonymous   Login
Location: Oshawa
(43.9000°N, 78.8670°W)
Time: 10:11:42
(UTC-04:00)
Language:

ITAMSAT 1 - Orbit

View from above orbital plane
View from above orbital plane
View from above satellite
View from above satellite

Ground track
Ground track

The orbit data is extracted from the following two-line orbital elements,

1 22826U 93061D   17178.85666769 +.00000003 +00000-0 +18809-4 0  9999
2 22826 098.8070 144.6504 0007890 294.2759 065.7598 14.30328144238856
Epoch (UTC): 27 June 2017 20:33:36
Eccentricity: 0.0007890
inclination: 98.8070°
perigee height: 785 km
apogee height: 796 km
right ascension of ascending node: 144.6504°
argument of perigee: 294.2759°
revolutions per day: 14.30328144
mean anomaly at epoch: 65.7598°
orbit number at epoch: 23885

The dashed part of the orbit path shows where the satellite is in the earth's shadow,  

DLR